Tracking 28790 objects as of 19-Apr-2024
HD Live streaming from Space Station
objects crossing your sky now

COSMOS 1275 DEB

Track COSMOS 1275 DEB now!
10-day predictions


NORAD ID: 39938
Int'l Code: 1981-053NE
Perigee: 919.4 km
Apogee: 1,120.1 km
Inclination: 83.1 °
Period: 105.4 minutes
Semi major axis: 7390 km
RCS: 0.0075 m2 (small)
Launch date: April 25, 1981
Source: Commonwealth of Independent States (former USSR) (CIS)
Launch site: PLESETSK MISSILE AND SPACE COMPLEX (PKMTR)

Note: This is SATELLITE DEBRIS
Your satellite tracking list
Your tracking list is empty




NASA's NSSDC Master Catalog

Two Line Element Set (TLE):
1 39938U 81053MY  24108.02562746  .00002021  00000-0  22771-2 0  9992
2 39938  83.0696 323.1585 0135791 358.6000   1.4751 13.66386468491071
Source of the keplerian elements: AFSPC